CPA603 VHHH-VNKT

Flight info

Callsign CPA603
Flight time N/A
Altitude 38000
Route PECAN V10 SIKOU/K0895S1160 A202 ASSAD/K0893F380 A206 NALAO/N0482F380 A206 LPB B465 MDY/N0478F400 B465 CTG G463 ROMEO ROMEO3R
Aircraft A333/H-SDE3GHIJ2J3J5M1RVWXY/LB2D1

Departure

Time 2026-05-04 11:05
Airport Hong Kong International Airport (VHHH)

Arrival

Time N/A
Airport Tribhuvan International Airport (VNKT)
Time Latitude Longitude Altitude Speed Heading
2026-05-04 10:29 22.31203 113.92620 41 ft 0 kts 115°
2026-05-04 10:51 22.31245 113.92509 40 ft 4 kts 117°
2026-05-04 10:52 22.31258 113.92484 41 ft 4 kts 123°
2026-05-04 10:52 22.31270 113.92465 41 ft 0 kts 124°
2026-05-04 10:54 22.31265 113.92473 41 ft 5 kts 124°
2026-05-04 10:54 22.31226 113.92514 41 ft 10 kts 154°
2026-05-04 10:56 22.30764 113.92341 41 ft 10 kts 166°
2026-05-04 10:56 22.30705 113.92287 40 ft 16 kts 244°
2026-05-04 10:56 22.30660 113.92149 41 ft 23 kts 250°
2026-05-04 10:57 22.30623 113.92034 41 ft 25 kts 251°
2026-05-04 10:57 22.30566 113.91856 41 ft 25 kts 250°
2026-05-04 10:57 22.30508 113.91679 41 ft 25 kts 250°
2026-05-04 10:57 22.30446 113.91488 40 ft 29 kts 251°
2026-05-04 10:58 22.30379 113.91278 41 ft 28 kts 251°
2026-05-04 10:58 22.30315 113.91082 41 ft 28 kts 251°
2026-05-04 10:58 22.30253 113.90887 41 ft 27 kts 251°
2026-05-04 10:58 22.30190 113.90693 41 ft 27 kts 251°
2026-05-04 10:59 22.30127 113.90500 40 ft 27 kts 251°
2026-05-04 10:59 22.30065 113.90307 40 ft 27 kts 251°
2026-05-04 10:59 22.30003 113.90113 40 ft 27 kts 250°
2026-05-04 10:59 22.29939 113.89912 40 ft 29 kts 251°
2026-05-04 11:00 22.29877 113.89749 41 ft 20 kts 224°
2026-05-04 11:01 22.29638 113.89840 41 ft 7 kts 91°
2026-05-04 11:02 22.29647 113.89877 41 ft 0 kts 71°
2026-05-04 11:02 22.29650 113.89887 40 ft 2 kts 71°
2026-05-04 11:05 22.32550 114.04495 5102 ft 251 kts 108°
2026-05-04 11:06 22.31715 114.06220 5444 ft 269 kts 132°
2026-05-04 11:06 22.30286 114.07516 6008 ft 275 kts 149°
2026-05-04 11:06 22.28530 114.08333 6629 ft 278 kts 172°